Overview Statistics Trail Chart Weather Telemetry Raw packets
 

This is the latest recevied weather packets stored in our database for station/object YD1OCG-15. If no packets are shown the sender has not sent any weather packets the latest 10 day(s).

<< 11 12 13 14 15 16 17 >>
Time Temp. Humidity Pressure Rain* Wind** Luminosity Snow
1787996364 29.44° C 64% 1011 hPa - - - -
1787994565 30.56° C 61% 1010 hPa - - - -
1787992764 31.11° C 61% 1010 hPa - - - -
1787991203 30.56° C 61% 1011 hPa - - - -
1787990200 30.56° C 61% 1010 hPa - - - -
1787988384 31.67° C 74% 1011 hPa - - - -
1787986584 30.56° C 63% 1011 hPa - - - -
1787984784 30.56° C 64% 1012 hPa - - - -
1787982983 30.56° C 64% 1012 hPa - - - -
1787981184 30° C 60% 1013 hPa - - - -
1787979383 30° C 54% 1013 hPa - - - -
1787975784 28.89° C 58% 1014 hPa - - - -
1787973982 28.33° C 59% 1015 hPa - - - -
1787973206 28.33° C 59% 1015 hPa - - - -
1787971403 28.33° C 72% 1015 hPa - - - -
1787967804 27.22° C 72% 1016 hPa - - - -
1787966003 27.22° C 78% 1016 hPa - - - -
1787965223 26.67° C 72% 1016 hPa - - - -
1787962943 25° C 68% 1016 hPa - - - -
1787961144 25° C 68% 1016 hPa - - - -
1787959344 24.44° C 75% 1015 hPa - - - -
1787955743 24.44° C 76% 1015 hPa - - - -
1787953944 25° C 74% 1015 hPa - - - -
1787952144 25° C 74% 1014 hPa - - - -
1787950343 25.56° C 74% 1015 hPa - - - -

* Rain since midnight (hover to see other rain measurements)
** Current wind speed in m/s (hover to see current wind gust speed)